Oceanside, CA

5:06 PM PDT on July 21, 2017 (GMT -0700)
Oceanside Municipal

Weather History for KOKB - July, 2013

Change the Weather History Date:

Monday, July 22, 2013

  Actual Average Record
Temperature  
Mean Temperature 71 °F 69 °F  
Max Temperature 78 °F 76 °F 94 °F (2006)
Min Temperature 64 °F 62 °F 58 °F (2014)
Degree Days  
Heating Degree Days 0 0  
Month to date heating degree days 0 0  
Since 1 June heating degree days 3 27  
Since 1 July heating degree days 0 0  
Cooling Degree Days 6 4  
Month to date cooling degree days 133 77  
Year to date cooling degree days 222 125  
Since 1 June cooling degree days 193 115  
Growing Degree Days 20 (Base 50)    
Moisture  
Dew Point 62 °F    
Average Humidity 74    
Maximum Humidity 87    
Minimum Humidity 60    
Precipitation  
Precipitation 0.00 in 0.00 in 0.00 in (2017)
Month to date precipitation T 0.10  
Year to date precipitation 2.32 9.37  
Since 1 July precipitation T  
Snow  
Snow 0.00 in - - ()
Month to date snowfall 0.0  
Year to date snowfall 0.0  
Snow Depth 0.00 in    
Sea Level Pressure  
Sea Level Pressure 29.94 in    
Wind  
Wind Speed 4 mph (WSW)    
Max Wind Speed 16 mph    
Max Gust Speed 16 mph    
Visibility 9 miles    
Events      
T = Trace of Precipitation, MM = Missing Value Source: NWS Daily Summary

Daily Weather History Graph

Daily Weather History Graph

Search for Another Location

Airport or City:

Trip Planner

Search our weather history database for the weather conditions in past years. The results will help you decide how hot, cold, wet, or windy it might be!

Date:

Astronomy

Jul. 22, 2013 Rise Set
Actual Time 5:55 AM PDT 7:55 PM PDT
Civil Twilight 5:28 AM PDT 8:23 PM PDT
Nautical Twilight 4:54 AM PDT 8:56 PM PDT
Astronomical Twilight 4:18 AM PDT 9:32 PM PDT
Moon 7:50 PM PDT 5:54 AM PDT
Length of Visible Light 14h 55m
Length of Day
13h 59m
Full, 100% of the Moon is Illuminated
Jul 22
Full
Jul 29
Last Quarter
Aug 6
New
Aug 14
First Quarter
Aug 20
Full

Hourly Weather History & Observations

Time (PDT) Temp. Dew Point Humidity Pressure Visibility Wind Dir Wind Speed Gust Speed Precip Events Conditions
12:52 AM 66.9 °F 61.0 °F 81% 29.91 in 9.0 mi Calm Calm - N/A   Clear
1:52 AM 66.0 °F 61.0 °F 84% 29.92 in 9.0 mi Calm Calm - N/A   Clear
2:52 AM 66.0 °F 61.0 °F 84% 29.92 in 9.0 mi Calm Calm - N/A   Clear
3:52 AM 64.9 °F 61.0 °F 87% 29.91 in 8.0 mi Calm Calm - N/A   Partly Cloudy
4:06 AM 64.4 °F 60.8 °F 88% 29.91 in 8.0 mi Calm Calm - N/A   Mostly Cloudy
4:37 AM 64.4 °F 60.8 °F 88% 29.91 in 8.0 mi Calm Calm - N/A   Overcast
4:52 AM 64.9 °F 61.0 °F 87% 29.91 in 8.0 mi Calm Calm - N/A   Overcast
5:52 AM 64.9 °F 61.0 °F 87% 29.92 in 8.0 mi Calm Calm - N/A   Partly Cloudy
6:52 AM 66.9 °F 62.1 °F 84% 29.93 in 6.0 mi Calm Calm - N/A   Haze
7:52 AM 70.0 °F 62.1 °F 76% 29.94 in 7.0 mi Variable 4.6 mph - N/A   Clear
8:52 AM 72.0 °F 62.1 °F 71% 29.96 in 8.0 mi West 3.5 mph - N/A   Clear
9:52 AM 73.9 °F 62.1 °F 66% 29.96 in 9.0 mi SW 5.8 mph - N/A   Clear
10:52 AM 77.0 °F 62.1 °F 60% 29.96 in 9.0 mi West 6.9 mph - N/A   Clear
11:52 AM 75.9 °F 62.1 °F 62% 29.97 in 10.0 mi WSW 9.2 mph - N/A   Clear
12:52 PM 75.9 °F 62.1 °F 62% 29.97 in 10.0 mi West 6.9 mph - N/A   Clear
1:52 PM 75.9 °F 63.0 °F 64% 29.96 in 10.0 mi West 6.9 mph - N/A   Clear
2:52 PM 75.9 °F 62.1 °F 62% 29.96 in 10.0 mi WSW 9.2 mph 16.1 mph N/A   Clear
3:52 PM 75.0 °F 63.0 °F 66% 29.95 in 10.0 mi WSW 6.9 mph - N/A   Clear
4:44 PM 73.4 °F 62.6 °F 69% 29.95 in 10.0 mi West 5.8 mph - N/A   Mostly Cloudy
4:52 PM 73.0 °F 63.0 °F 71% 29.95 in 10.0 mi WSW 8.1 mph - N/A   Mostly Cloudy
5:06 PM 73.4 °F 62.6 °F 69% 29.94 in 10.0 mi West 6.9 mph - N/A   Scattered Clouds
5:30 PM 73.4 °F 62.6 °F 69% 29.94 in 9.0 mi West 6.9 mph - N/A   Mostly Cloudy
5:52 PM 72.0 °F 63.0 °F 73% 29.94 in 9.0 mi WSW 5.8 mph - N/A   Scattered Clouds
6:14 PM 71.6 °F 62.6 °F 73% 29.93 in 10.0 mi West 5.8 mph - N/A   Mostly Cloudy
6:52 PM 70.0 °F 62.1 °F 76% 29.94 in 10.0 mi WSW 8.1 mph - N/A   Mostly Cloudy
7:15 PM 69.8 °F 62.6 °F 78% 29.94 in 10.0 mi WNW 5.8 mph - N/A   Scattered Clouds
7:52 PM 69.1 °F 62.1 °F 78% 29.95 in 10.0 mi Calm Calm - N/A   Clear
8:52 PM 69.1 °F 63.0 °F 81% 29.96 in 10.0 mi WSW 3.5 mph - N/A   Clear
9:52 PM 68.0 °F 62.1 °F 81% 29.97 in 10.0 mi Calm Calm - N/A   Clear
10:52 PM 66.9 °F 61.0 °F 81% 29.97 in 10.0 mi Calm Calm - N/A   Clear
11:52 PM 66.9 °F 61.0 °F 81% 29.96 in 9.0 mi Calm Calm - N/A   Clear